NWS Regional Weather Roundup

410
ASUS41 KBGM 092210
RWRBGM

REGIONAL WEATHER ROUNDUP
NATIONAL WEATHER SERVICE BINGHAMTON NY
500 PM EST MON DEC 09 2019

Note: "fair" indicates few or no clouds below 12,000 feet with no
significant weather and/or obstructions to visibility.

* = Station(s) that does not report precipitation, such as rain,
snow, etc, also no thunder or fog.

NYZ009-015>018-022>025-036-037-044>046-055>057-062-092300
...Central New York...

CITY           SKY/WX    TMP DP  RH WIND       PRES   REMARKS
Binghamton     LGT RAIN  41  40  96 S8        29.67S FOG
Cortland       CLOUDY    41  41 100 SW13      29.64F
Dansville      LGT RAIN  46  40  79 S12G20    29.56F
Elmira         LGT RAIN  45  39  79 VRB3      29.64F
Endicott       CLOUDY    45  45 100 CALM      29.67F
Ithaca         CLOUDY    43  40  89 S16G22    29.63F
Hamilton       CLOUDY    43  39  87 S15       29.64F
Monticello     LGT RAIN  41  41 100 S9        29.79F
Norwich        RAIN      43  39  87 S13G20    29.67F
Oneonta        DRIZZLE   43  43 100 S8G22     29.68S
Penn Yan       LGT RAIN  42  37  82 S16G25    29.58F
Rome           LGT RAIN  40  40 100 E7        29.66F
Seneca Falls   LGT RAIN  43  39  87 S18       29.58F
Sidney         CLOUDY    45  41  87 SW5       29.70F
Skaneateles    CLOUDY    45  41  87 S12G22    29.58F
Syracuse       CLOUDY    46  39  76 S13G22    29.60F
$$

PAZ038>040-043-044-047-048-072-092300
...Northeast Pennsylvania...

CITY           SKY/WX    TMP DP  RH WIND       PRES   REMARKS
Hazleton       RAIN      45  43  93 S10G22    29.77F
Scranton       LGT RAIN  48  43  82 S10G22    29.74F
Towanda        PTCLDY    46  43  87 SW10      29.70F
$$
&&
KEY
WCI = Wind Chill Index
VSB = Visibility
HX  = Heat Index
$$

NWS BGM Office Regional Weather Roundup